METAR AND TAF INFORMATION
METAR FOR EGKB
ADDS - METARS form results

(1113 UTC 23 May 2019)
Data provider http://aviationweather.gov/metar/data/
 
METAR text: EGKB 231050Z VRB05KT CAVOK 20/10 Q1017
Conditions at: EGKB (BIGGIN HILL , GB) observed 1050 UTC 23 May 2019
Temperature: 20.0°C (68°F)
Dewpoint: 10.0°C (50°F) [RH = 53%]
Pressure (altimeter): 30.03 inches Hg (1017.0 mb)
Winds: variable direction winds at 6 MPH (5 knots; 2.6 m/s)
Visibility: 6 or more miles (10+ km)
Ceiling: ceiling and visibility are OK
Clouds: unknown
Weather: no significant weather observed at this time

METAR text: EGKB 231020Z 18011KT CAVOK 19/08 Q1017
Conditions at: EGKB (BIGGIN HILL , GB) observed 1020 UTC 23 May 2019
Temperature: 19.0°C (66°F)
Dewpoint: 8.0°C (46°F) [RH = 49%]
Pressure (altimeter): 30.03 inches Hg (1017.0 mb)
Winds: from the S (180 degrees) at 13 MPH (11 knots; 5.7 m/s)
Visibility: 6 or more miles (10+ km)
Ceiling: ceiling and visibility are OK
Clouds: unknown
Weather: no significant weather observed at this time

Forecast for: EGKB (BIGGIN HILL , GB)
Text: TAF EGKB 231107Z 2312/2321 23005KT 9999 FEW045
Forecast period: 1200 to 2100 UTC 23 May 2019
Forecast type: FROM: standard forecast or significant change
Winds: from the SW (230 degrees) at 6 MPH (5 knots; 2.6 m/s)
Visibility: 6 or more miles 10+ km)
Ceiling: at least 12,000 feet AGL
Clouds: few clouds at 4500 feet AGL
Weather: no significant weather forecast for this period

AIRPORT MAP

RUNWAY INFORMATION
Runway 03 Runway length 5912 ft Runway width 148 ft
Runway elevation 577 ft Runway displaced threshold 790 ft Runway heading 26
Runway 21 Runway length 5912 ft Runway width 148 ft
Runway elevation 517 ft Runway displaced threshold 0 ft Runway heading 206
Runway 11 Runway length 2598 ft Runway width 59 ft
Runway elevation 586 ft Runway displaced threshold 0 ft Runway heading 105
Runway 29 Runway length 2598 ft Runway width 59 ft
Runway elevation 598 ft Runway displaced threshold 0 ft Runway heading 285

AIRPORT FREQUENCIES
Type APP Name APP Frequency 129.4 MHZ
Type ATIS Name ATIS Frequency 135.675 MHZ
Type RDR Name THAMES RDR Frequency 132.7 MHZ
Type TWR Name TWR Frequency 134.8 MHZ

AIRPORT NEAR NAVIGATION AIDS
Type VOR-DME Name Biggin Frequency 115100 KHZ